Lid_Strength_Index
4 4 4 4 3 3 3 3 4 4 3 3 3 3 3 3 3 6 9 5 4 1 1 4 5 7 8 9 9 10 16 16 15 13 13 10 12 10 9 11 10 8 9 6 5
4 4 4 4 3 3 3 3 3 3 3 3 3 3 3 3 7 9 4 3 3 1 4 6 8 8 11 10 11 13 16 14 13 13 13 12 12 11 11 12 12 11 9 6 6
3 4 4 4 3 3 3 3 3 3 4 3 3 3 3 4 9 9 4 4 3 2 4 6 7 8 11 11 12 13 15 13 12 11 11 12 12 11 13 13 12 12 10 8 8
3 3 4 4 3 3 3 3 2 3 3 3 3 3 3 7 16 7 4 4 3 3 5 7 8 10 12 13 11 15 12 12 11 11 11 12 12 12 12 12 11 11 10 9 8
2 3 3 3 3 3 3 3 2 2 3 3 3 2 7 11 11 6 3 3 5 5 7 8 9 10 12 12 12 14 13 12 11 11 12 11 13 13 13 11 11 10 9 10 9
3 3 3 3 3 3 3 3 3 2 2 3 3 3 8 14 8 7 7 6 6 7 8 8 9 9 11 12 14 12 12 12 12 12 12 12 13 13 13 12 12 11 10 10 10
3 4 4 5 5 5 4 4 3 2 2 3 3 5 9 11 8 8 6 7 7 8 8 8 8 10 10 12 11 12 14 13 13 13 13 12 14 14 12 12 12 12 11 11 10
3 4 4 4 5 5 5 4 4 3 3 3 3 8 12 8 9 8 7 7 7 7 8 7 8 9 10 11 12 15 15 17 14 13 12 14 16 13 12 13 12 13 13 12 10
3 3 4 4 5 5 5 5 4 4 4 4 8 10 13 7 9 9 7 8 7 8 8 7 8 11 12 14 16 16 18 16 15 12 13 15 16 13 13 13 13 13 13 12 11
1 3 3 4 4 5 5 4 4 6 7 7 9 14 12 12 9 8 8 7 8 9 9 10 11 14 14 16 19 17 17 16 17 15 15 16 15 13 12 13 14 14 14 13 12
1 2 2 3 4 5 6 8 10 12 11 14 14 14 12 10 8 9 8 9 8 10 14 12 15 17 15 14 15 16 17 18 16 15 16 16 16 14 13 13 15 14 14 14 13
1 1 1 2 3 4 6 9 10 10 15 11 11 12 10 10 12 10 7 11 11 14 13 15 16 14 13 13 15 16 17 17 15 15 16 16 15 14 14 15 15 14 14 14 13
0 1 1 1 3 5 7 7 7 8 14 12 11 12 12 11 13 12 9 11 13 14 14 16 14 13 13 15 15 16 17 17 17 15 15 16 16 16 15 14 14 14 14 14 13
1 0 1 2 4 5 7 6 7 8 16 15 14 13 12 12 14 10 10 11 13 14 14 15 13 14 15 15 15 17 15 15 15 18 19 16 20 17 16 16 15 14 14 14 13
1 0 1 2 5 7 6 5 6 8 22 14 15 11 12 14 14 13 10 12 14 14 14 16 15 16 15 15 15 16 15 16 16 18 19 18 20 17 17 17 15 15 14 14 13
1 2 1 3 5 5 4 5 7 16 23 18 15 15 15 14 14 13 13 11 11 14 14 16 13 14 14 14 14 14 15 16 16 18 23 18 20 19 18 16 16 16 14 13 13
1 1 2 2 5 3 5 7 16 20 15 17 16 15 15 16 15 14 15 16 17 20 20 16 16 14 13 16 14 15 17 22 22 23 21 19 21 18 15 15 15 15 15 14 13
1 1 1 2 2 4 6 12 19 19 17 14 14 14 17 16 15 15 16 18 16 17 21 19 21 16 14 16 17 17 17 20 23 22 20 20 20 16 16 15 15 15 14 14 14
1 1 2 3 3 3 9 16 19 16 12 14 14 16 17 16 16 16 16 17 16 15 17 18 19 16 15 15 16 17 19 16 20 24 22 19 17 15 16 16 15 15 15 14 14
5 3 3 2 2 4 12 14 16 11 11 12 16 15 18 16 17 17 17 15 15 14 13 15 22 18 16 15 16 17 16 20 20 24 23 20 18 17 17 16 15 15 15 14 14
5 6 3 1 2 7 13 14 13 10 11 13 15 14 14 16 16 17 16 15 14 14 13 15 18 20 18 19 19 19 20 19 17 18 21 23 18 13 14 14 15 15 14 14 14
5 10 2 2 10 12 12 11 9 10 11 12 12 13 14 14 16 16 17 15 14 13 15 13 17 23 21 17 16 17 17 17 19 20 21 20 18 13 15 15 15 14 14 14 14
9 7 3 3 12 12 10 9 8 9 11 11 12 12 12 14 17 15 14 14 14 14 15 13 18 24 21 19 18 19 17 16 16 18 22 21 18 13 15 15 14 14 14 14 14
9 12 8 7 8 11 11 11 12 7 8 9 10 10 12 14 13 15 14 13 13 14 12 12 17 20 21 18 18 21 18 16 17 22 19 20 17 13 16 16 14 14 14 14 14
9 11 13 13 12 10 10 11 11 12 8 8 10 11 12 15 14 14 12 13 13 13 14 14 19 20 19 18 18 19 19 18 18 16 18 17 17 13 13 15 15 13 13 14 15
11 11 10 12 11 11 10 11 11 10 10 11 11 10 10 12 13 15 13 13 13 14 14 13 19 18 20 19 18 20 18 19 18 20 20 19 18 12 11 12 14 13 13 13 12
7 7 9 11 13 13 12 11 11 9 9 8 9 10 11 10 8 8 9 10 11 13 15 15 16 18 22 19 18 20 20 18 18 18 16 18 14 12 13 12 12 12 13 13 12